sat.trackr.live / text

‹ back to catalog

STARLINK-1623

NORAD 46129 · 2020-057N

PAYLOAD ACTIVE UNKNOWN

§ Identity

Operator
Country
US
Launch date
2020-08-18
Launch site
AFETR
Launch vehicle
Mass (kg)
RCS (m²)

Purposes: comms

External: N2YO · Heavens-Above · Gunter

§ Orbital elements

Epoch: 2026-08-22T01:04:20.102304Z

Period
87.48 min
Inclination
53.0137°
Eccentricity
0.0006200
Mean motion
16.46115981 rev/d
Perigee alt
145.5 km
Apogee alt
153.6 km
Semi-major
6,527.7 km
B*
2.9275e-4
RAAN
151.0676°
Arg perigee
263.2231°
Mean anomaly
96.8112°
Rev number
33,299

§ Raw data

STARLINK-16231 46129U 20057N   26234.04467711  .12899124  12521-4  29275-3 0  99922 46129  53.0137 151.0676 0006200 263.2231  96.8112 16.46115981332991

JSON: /api/v1/satellites/46129 · /tle

For live sub-satellite position, see the globe view (requires WebGL).

§ Visibility from observer

Set your observer location to see the next 7 days of passes ≥ 10°. The values pass through the URL so the page stays shareable.

No JS? Fill the form by hand. The geolocation button needs JavaScript.